Theta_e
335 329 331 337 334 334 336 339 351 365 362 365 364 362 365 359 358 359 355 358 353 348
333 336 334 341 344 336 344 341 344 355 361 361 362 365 365 357 358 358 357 355 358 352
332 333 336 339 341 343 346 349 352 352 353 358 360 363 364 358 358 355 353 351 355 355
328 331 334 338 339 342 346 348 348 350 352 353 357 361 361 357 353 354 355 355 355 352
325 328 335 336 338 343 344 346 345 346 347 349 352 358 356 353 349 353 352 351 353 350
326 329 333 335 338 337 343 344 343 343 346 346 349 353 354 352 351 353 353 352 349 347
325 327 330 333 335 335 337 342 341 345 344 347 349 350 352 352 355 355 353 354 351 347
322 324 326 330 332 335 336 343 340 342 344 351 351 348 353 354 355 354 350 351 347 349
316 319 324 329 331 335 334 344 341 344 347 351 347 320 322 343 354 350 347 346 346 345
316 317 320 326 328 333 335 344 346 348 352 352 353 312 313 320 352 348 347 348 345 342
315 316 320 326 330 334 336 342 345 350 351 353 349 308 311 316 351 348 347 345 344 342
315 317 321 325 330 330 336 341 345 349 349 350 339 305 310 327 346 343 342 341 340 339
316 320 323 328 329 328 337 342 347 348 350 334 340 303 309 324 341 340 336 338 332 310
321 324 327 330 326 329 339 341 345 342 342 343 336 324 305 306 339 335 334 333 333 332
Wind_Speed
9 9 9 11 11 10 10 10 12 13 16 17 17 16 14 10 11 10 11 13 11 9
8 9 10 12 10 10 11 11 14 9 12 15 16 14 13 11 12 11 11 11 11 11
10 10 10 10 11 12 12 13 12 11 13 13 14 14 14 12 11 12 10 10 12 11
11 12 12 10 11 12 13 13 14 13 13 15 15 15 14 12 13 14 12 12 13 14
12 13 12 12 12 13 14 13 13 13 15 15 15 14 15 16 14 15 14 13 12 12
12 12 12 13 13 14 16 14 15 15 16 16 16 16 16 17 15 14 14 13 12 12
14 13 14 14 13 15 17 17 16 15 17 18 18 18 18 17 14 13 12 11 12 12
16 16 16 16 16 16 16 18 17 17 17 17 15 14 16 15 13 11 11 10 10 9
19 18 16 16 16 16 17 19 16 17 17 16 13 15 15 13 12 12 10 10 9 9
20 20 19 19 17 17 16 18 16 18 17 16 15 17 15 12 12 10 9 10 10 10
21 21 19 17 18 12 16 17 16 17 17 14 11 13 17 13 11 10 10 11 10 10
21 20 19 18 15 15 17 16 16 15 17 16 12 11 18 15 13 11 11 11 11 10
20 18 14 15 14 14 18 16 14 16 16 15 15 10 18 14 10 11 10 8 8 11
15 16 16 15 11 15 15 15 14 16 12 13 17 14 12 5 10 11 8 8 7 6
Wind_Direction
261 259 258 238 243 257 256 259 272 193 205 213 219 216 216 207 215 197 202 229 221 252
255 254 265 281 289 274 263 260 271 260 217 220 223 215 209 207 205 203 205 210 219 229
289 280 266 260 258 259 266 270 270 239 229 232 227 217 207 200 196 197 205 212 201 213
281 283 279 267 266 264 256 252 251 253 233 222 224 213 206 204 195 197 204 210 190 204
286 283 279 279 276 274 258 258 252 246 242 226 219 208 203 209 199 194 199 204 195 200
281 282 280 279 283 277 279 259 250 241 232 231 218 206 202 206 210 190 197 199 205 205
283 281 281 280 276 274 274 268 255 240 235 228 217 204 200 205 204 188 199 191 199 207
280 274 271 269 271 276 273 269 252 248 233 226 211 202 196 199 189 187 188 187 200 209
271 266 268 267 265 263 267 264 245 244 229 214 208 180 178 187 173 183 183 184 195 161
268 263 258 260 260 255 264 263 235 239 221 211 201 156 150 161 171 170 180 183 184 182
264 260 260 257 257 262 265 254 230 230 215 200 157 158 139 150 163 171 179 177 189 198
261 257 256 254 259 262 261 243 224 219 207 192 150 166 142 160 158 167 177 188 190 191
254 258 266 269 261 266 250 231 215 206 193 171 156 173 153 186 165 166 177 161 107 65
259 258 265 255 254 263 235 219 205 195 161 150 156 164 175 60 169 169 162 165 166 148